Вернуться в каталог

STARLINK-34206

АктивенСвязьVLEO
NORAD 66098·PAYLOAD·🇺🇸 United States

Запущен Oct 19, 2025 с Vandenberg Space Force Base

Loading…

Ближайшие Пролёты (ближайшие 24 часа)

TLE

СвежийSource: CelesTrak SupGP

Эпоха: Sep 14, 2026, 21:15 UTC

1 66098C 25236N   26257.88590278  .00010180  00000+0  30093-3 0  2570
2 66098  53.1590 301.6799 0001263  78.7548 124.3434 15.34370228    17

Отслеживайте STARLINK-34206 в реальном времени с AllMySat

Download on the App Store